📊 Raw Sensor Data
Showing records 37951 to 37975 of 84,921 total
| ID | Distance (ft) | Battery V | Battery A | Int Temp (°F) | Int Humid (%) | Ext Temp (°F) | Solar V | RSSI | SNR | Time Stamp |
|---|---|---|---|---|---|---|---|---|---|---|
| 46983 | 15.1 | 3.72 | -5 | 59 | 44 | 60 | 0.10 | -68 | 8 | 07/22/2025 12:45 AM |
| 46982 | 15.2 | 3.73 | -5 | 59 | 44 | 60 | 0.00 | -69 | 8 | 07/22/2025 12:30 AM |
| 46981 | 15.2 | 3.87 | -5 | 59 | 44 | 60 | 0.00 | -70 | 8 | 07/22/2025 12:15 AM |
| 46980 | 15.1 | 3.87 | -5 | 59 | 44 | 60 | 0.00 | -69 | 8 | 07/22/2025 12:00 AM |
| 46979 | 15.1 | 3.70 | -5 | 59 | 44 | 60 | 0.10 | -68 | 8 | 07/21/2025 11:45 PM |
| 46978 | 15.2 | 3.70 | -5 | 59 | 45 | 60 | 0.00 | -70 | 8 | 07/21/2025 11:30 PM |
| 46977 | 15.1 | 3.87 | -5 | 59 | 45 | 60 | 0.00 | -68 | 7 | 07/21/2025 11:15 PM |
| 46976 | 15.1 | 3.70 | -5 | 59 | 45 | 60 | 0.10 | -69 | 8 | 07/21/2025 11:00 PM |
| 46975 | 15.1 | 3.70 | -5 | 60 | 45 | 60 | 0.00 | -70 | 9 | 07/21/2025 10:45 PM |
| 46974 | 15.1 | 3.70 | -5 | 60 | 45 | 60 | 0.00 | -68 | 7 | 07/21/2025 10:30 PM |
| 46973 | 15.1 | 3.70 | -5 | 60 | 46 | 61 | 0.00 | -68 | 8 | 07/21/2025 10:15 PM |
| 46972 | 15.1 | 3.70 | -5 | 61 | 46 | 61 | 0.00 | -69 | 8 | 07/21/2025 10:00 PM |
| 46971 | 15.2 | 3.70 | -5 | 61 | 46 | 61 | 0.00 | -70 | 8 | 07/21/2025 09:45 PM |
| 46970 | 15.2 | 3.70 | -5 | 62 | 46 | 62 | 0.00 | -70 | 9 | 07/21/2025 09:30 PM |
| 46969 | 15.1 | 3.70 | -5 | 62 | 47 | 62 | 0.00 | -69 | 8 | 07/21/2025 09:15 PM |
| 46968 | 15.1 | 3.70 | -5 | 63 | 47 | 63 | 0.00 | -69 | 8 | 07/21/2025 09:00 PM |
| 46967 | 15.1 | 3.71 | -5 | 64 | 48 | 63 | 0.80 | -71 | 8 | 07/21/2025 08:45 PM |
| 46966 | 15.2 | 3.69 | -7 | 65 | 48 | 64 | 3.60 | -69 | 9 | 07/21/2025 08:30 PM |
| 46965 | 15.2 | 3.87 | -5 | 66 | 47 | 66 | 4.50 | -71 | 8 | 07/21/2025 08:15 PM |
| 46964 | 15.2 | 3.68 | 0 | 67 | 49 | 65 | 4.50 | -68 | 8 | 07/21/2025 08:00 PM |
| 46963 | 15.2 | 3.92 | 0 | 68 | 49 | 66 | 4.50 | -69 | 8 | 07/21/2025 07:45 PM |
| 46962 | 15.2 | 3.97 | 10 | 70 | 49 | 68 | 4.50 | -69 | 8 | 07/21/2025 07:30 PM |
| 46961 | 15.2 | 3.78 | -15 | 69 | 51 | 68 | 4.60 | -70 | 8 | 07/21/2025 07:15 PM |
| 46960 | 15.1 | 4.00 | 0 | 71 | 53 | 68 | 4.50 | -70 | 8 | 07/21/2025 07:00 PM |
| 46959 | 15.2 | 3.82 | -12 | 73 | 54 | 69 | 4.50 | -69 | 8 | 07/21/2025 06:45 PM |